Time,TemperatureF,DewpointF,PressureIn,WindDirection,WindDirectionDegrees,WindSpeedMPH,WindSpeedGustMPH,Humidity,HourlyPrecipIn,Conditions,Clouds,dailyrainin,SolarRadiationWatts/m^2,SoftwareType,DateUTC
2013-05-18 00:02:00,55.0,50.0,-100.00,East,80,5.0,11.0,82,0.00,,,0.41,141.000000,,2013-05-18 00:02:00,
2013-05-18 00:12:00,54.0,48.0,-100.00,ENE,70,5.0,9.0,81,0.00,,,0.41,77.000000,,2013-05-18 00:12:00,
2013-05-18 00:34:00,54.0,48.0,-100.00,ENE,70,5.0,9.0,81,0.00,,,0.41,77.000000,,2013-05-18 00:34:00,
2013-05-18 00:45:00,54.0,48.0,-100.00,ENE,70,5.0,9.0,81,0.00,,,0.41,77.000000,,2013-05-18 00:45:00,
2013-05-18 00:54:00,54.0,48.0,-100.00,ENE,70,5.0,9.0,81,0.00,,,0.41,77.000000,,2013-05-18 00:54:00,
2013-05-18 01:03:00,54.0,48.0,-100.00,ENE,70,5.0,9.0,81,0.00,,,0.41,77.000000,,2013-05-18 01:03:00,
2013-05-18 01:12:00,53.0,49.0,-100.00,ENE,76,5.0,9.0,85,0.00,,,-99.99,19.000000,,2013-05-18 01:12:00,
2013-05-18 01:32:00,53.0,49.0,-100.00,ENE,76,5.0,9.0,85,0.00,,,-99.99,19.000000,,2013-05-18 01:32:00,
2013-05-18 01:43:00,53.0,49.0,-100.00,ENE,76,5.0,9.0,85,0.00,,,-99.99,19.000000,,2013-05-18 01:43:00,
2013-05-18 01:52:00,53.0,49.0,-100.00,ENE,76,5.0,9.0,85,0.00,,,-99.99,19.000000,,2013-05-18 01:52:00,
2013-05-18 02:02:00,53.0,49.0,-100.00,ENE,76,5.0,9.0,85,0.00,,,-99.99,19.000000,,2013-05-18 02:02:00,
2013-05-18 02:12:00,53.0,50.0,-100.00,ENE,60,4.0,10.0,88,0.00,,,0.41,0.000000,,2013-05-18 02:12:00,
2013-05-18 02:43:00,53.0,50.0,-100.00,ENE,60,4.0,10.0,88,0.00,,,0.41,0.000000,,2013-05-18 02:43:00,
2013-05-18 02:54:00,53.0,50.0,-100.00,ENE,60,4.0,10.0,88,0.00,,,0.41,0.000000,,2013-05-18 02:54:00,
2013-05-18 03:02:00,53.0,50.0,-100.00,ENE,60,4.0,10.0,88,0.00,,,0.41,0.000000,,2013-05-18 03:02:00,
2013-05-18 03:12:00,52.0,49.0,-100.00,NE,54,5.0,10.0,90,0.00,,,0.41,0.000000,,2013-05-18 03:12:00,
2013-05-18 03:33:00,52.0,49.0,-100.00,NE,54,5.0,10.0,90,0.00,,,0.41,0.000000,,2013-05-18 03:33:00,
2013-05-18 03:43:00,52.0,49.0,-100.00,NE,54,5.0,10.0,90,0.00,,,0.41,0.000000,,2013-05-18 03:43:00,
2013-05-18 03:53:00,52.0,49.0,-100.00,NE,54,5.0,10.0,90,0.00,,,0.41,0.000000,,2013-05-18 03:53:00,
2013-05-18 04:03:00,52.0,49.0,-100.00,NE,54,5.0,10.0,90,0.00,,,0.41,0.000000,,2013-05-18 04:03:00,
2013-05-18 04:12:00,52.0,49.0,-100.00,NE,53,4.0,9.0,90,0.00,,,0.41,0.000000,,2013-05-18 04:12:00,
2013-05-18 04:33:00,52.0,49.0,-100.00,NE,53,4.0,9.0,90,0.00,,,0.41,0.000000,,2013-05-18 04:33:00,
2013-05-18 04:43:00,52.0,49.0,-100.00,NE,53,4.0,9.0,90,0.00,,,0.41,0.000000,,2013-05-18 04:43:00,
2013-05-18 04:52:00,52.0,49.0,-100.00,NE,53,4.0,9.0,90,0.00,,,0.41,0.000000,,2013-05-18 04:52:00,
2013-05-18 05:02:00,52.0,49.0,-100.00,NE,53,4.0,9.0,90,0.00,,,0.41,0.000000,,2013-05-18 05:02:00,
2013-05-18 05:32:00,51.0,48.0,-100.00,ENE,61,4.0,10.0,89,0.00,,,0.41,0.000000,,2013-05-18 05:32:00,
2013-05-18 05:42:00,51.0,48.0,-100.00,ENE,61,4.0,10.0,89,0.00,,,0.41,0.000000,,2013-05-18 05:42:00,
2013-05-18 05:52:00,51.0,48.0,-100.00,ENE,61,4.0,10.0,89,0.00,,,0.41,0.000000,,2013-05-18 05:52:00,
2013-05-18 06:02:00,51.0,48.0,-100.00,ENE,61,4.0,10.0,89,0.00,,,0.41,0.000000,,2013-05-18 06:02:00,
2013-05-18 06:11:00,51.0,48.0,-100.00,ENE,61,4.0,10.0,89,0.00,,,0.41,0.000000,,2013-05-18 06:11:00,
2013-05-18 06:42:00,51.0,48.0,-100.00,NE,56,4.0,10.0,90,0.00,,,0.41,0.000000,,2013-05-18 06:42:00,
2013-05-18 06:52:00,51.0,48.0,-100.00,NE,56,4.0,10.0,90,0.00,,,0.41,0.000000,,2013-05-18 06:52:00,
2013-05-18 07:01:00,51.0,48.0,-100.00,NE,56,4.0,10.0,90,0.00,,,0.41,0.000000,,2013-05-18 07:01:00,
2013-05-18 07:11:00,51.0,48.0,-100.00,NE,56,4.0,10.0,90,0.00,,,0.41,0.000000,,2013-05-18 07:11:00,
2013-05-18 07:32:00,51.0,48.0,-100.00,ENE,61,3.0,8.0,91,0.00,,,0.41,0.000000,,2013-05-18 07:32:00,
2013-05-18 07:43:00,51.0,48.0,-100.00,ENE,61,3.0,8.0,91,0.00,,,0.41,0.000000,,2013-05-18 07:43:00,
2013-05-18 07:52:00,51.0,48.0,-100.00,ENE,61,3.0,8.0,91,0.00,,,0.41,0.000000,,2013-05-18 07:52:00,
2013-05-18 08:01:00,51.0,48.0,-100.00,ENE,61,3.0,8.0,91,0.00,,,0.41,0.000000,,2013-05-18 08:01:00,
2013-05-18 08:11:00,51.0,48.0,-100.00,ENE,61,3.0,8.0,91,0.00,,,0.41,0.000000,,2013-05-18 08:11:00,
2013-05-18 08:42:00,51.0,48.0,-100.00,ENE,63,4.0,9.0,91,0.00,,,0.41,0.000000,,2013-05-18 08:42:00,
2013-05-18 08:52:00,51.0,48.0,-100.00,ENE,63,4.0,9.0,91,0.00,,,0.41,0.000000,,2013-05-18 08:52:00,
2013-05-18 09:02:00,51.0,48.0,-100.00,ENE,63,4.0,9.0,91,0.00,,,0.41,0.000000,,2013-05-18 09:02:00,
2013-05-18 09:11:00,51.0,48.0,-100.00,ENE,63,4.0,9.0,91,0.00,,,0.41,0.000000,,2013-05-18 09:11:00,
2013-05-18 09:12:00,51.0,49.0,-100.00,ENE,78,4.0,9.0,92,0.00,,,0.41,0.000000,,2013-05-18 09:12:00,
2013-05-18 09:43:00,51.0,49.0,-100.00,ENE,78,4.0,9.0,92,0.00,,,0.41,0.000000,,2013-05-18 09:43:00,
2013-05-18 09:53:00,51.0,49.0,-100.00,ENE,78,4.0,9.0,92,0.00,,,0.41,0.000000,,2013-05-18 09:53:00,
2013-05-18 10:03:00,51.0,49.0,-100.00,ENE,78,4.0,9.0,92,0.00,,,0.41,0.000000,,2013-05-18 10:03:00,
2013-05-18 10:12:00,50.0,48.0,-100.00,NE,44,3.0,8.0,93,0.00,,,-99.99,0.000000,,2013-05-18 10:12:00,
2013-05-18 10:33:00,50.0,48.0,-100.00,NE,44,3.0,8.0,93,0.00,,,-99.99,0.000000,,2013-05-18 10:33:00,
2013-05-18 10:42:00,50.0,48.0,-100.00,NE,44,3.0,8.0,93,0.00,,,-99.99,0.000000,,2013-05-18 10:42:00,
2013-05-18 10:53:00,50.0,48.0,-100.00,NE,44,3.0,8.0,93,0.00,,,-99.99,0.000000,,2013-05-18 10:53:00,
2013-05-18 11:03:00,50.0,48.0,-100.00,NE,44,3.0,8.0,93,0.00,,,-99.99,0.000000,,2013-05-18 11:03:00,
2013-05-18 11:12:00,51.0,49.0,-100.00,NE,56,3.0,8.0,94,0.00,,,0.41,19.000000,,2013-05-18 11:12:00,
2013-05-18 11:33:00,51.0,49.0,-100.00,NE,56,3.0,8.0,94,0.00,,,0.41,19.000000,,2013-05-18 11:33:00,
2013-05-18 11:42:00,51.0,49.0,-100.00,NE,56,3.0,8.0,94,0.00,,,0.41,19.000000,,2013-05-18 11:42:00,
2013-05-18 11:52:00,51.0,49.0,-100.00,NE,56,3.0,8.0,94,0.00,,,0.41,19.000000,,2013-05-18 11:52:00,
2013-05-18 12:02:00,51.0,49.0,-100.00,NE,56,3.0,8.0,94,0.00,,,0.41,19.000000,,2013-05-18 12:02:00,
2013-05-18 12:42:00,53.0,50.0,-100.00,ENE,59,4.0,9.0,88,0.00,,,0.41,106.000000,,2013-05-18 12:42:00,
2013-05-18 12:52:00,53.0,50.0,-100.00,ENE,59,4.0,9.0,88,0.00,,,0.41,106.000000,,2013-05-18 12:52:00,
2013-05-18 13:01:00,53.0,50.0,-100.00,ENE,59,4.0,9.0,88,0.00,,,0.41,106.000000,,2013-05-18 13:01:00,
2013-05-18 13:11:00,53.0,50.0,-100.00,ENE,59,4.0,9.0,88,0.00,,,0.41,106.000000,,2013-05-18 13:11:00,
2013-05-18 13:12:00,56.0,51.0,-100.00,East,90,3.0,8.0,82,0.00,,,0.38,141.000000,,2013-05-18 13:12:00,
2013-05-18 13:33:00,56.0,51.0,-100.00,East,90,3.0,8.0,82,0.00,,,0.38,141.000000,,2013-05-18 13:33:00,
2013-05-18 13:43:00,56.0,51.0,-100.00,East,90,3.0,8.0,82,0.00,,,0.38,141.000000,,2013-05-18 13:43:00,
2013-05-18 13:53:00,56.0,51.0,-100.00,East,90,3.0,8.0,82,0.00,,,0.38,141.000000,,2013-05-18 13:53:00,
2013-05-18 14:03:00,56.0,51.0,-100.00,East,90,3.0,8.0,82,0.00,,,0.38,141.000000,,2013-05-18 14:03:00,
2013-05-18 14:12:00,58.0,52.0,-100.00,East,86,4.0,8.0,81,0.00,,,0.29,188.000000,,2013-05-18 14:12:00,
2013-05-18 14:33:00,58.0,52.0,-100.00,East,86,4.0,8.0,81,0.00,,,0.29,188.000000,,2013-05-18 14:33:00,
2013-05-18 14:42:00,58.0,52.0,-100.00,East,86,4.0,8.0,81,0.00,,,0.29,188.000000,,2013-05-18 14:42:00,
2013-05-18 14:54:00,58.0,52.0,-100.00,East,86,4.0,8.0,81,0.00,,,0.29,188.000000,,2013-05-18 14:54:00,
2013-05-18 15:03:00,58.0,52.0,-100.00,East,86,4.0,8.0,81,0.00,,,0.29,188.000000,,2013-05-18 15:03:00,
2013-05-18 15:12:00,62.0,53.0,-100.00,SE,127,4.0,10.0,73,0.00,,,0.19,309.000000,,2013-05-18 15:12:00,
2013-05-18 15:43:00,62.0,53.0,-100.00,SE,127,4.0,10.0,73,0.00,,,0.19,309.000000,,2013-05-18 15:43:00,
2013-05-18 15:53:00,62.0,53.0,-100.00,SE,127,4.0,10.0,73,0.00,,,0.19,309.000000,,2013-05-18 15:53:00,
2013-05-18 16:02:00,62.0,53.0,-100.00,SE,127,4.0,10.0,73,0.00,,,0.19,309.000000,,2013-05-18 16:02:00,
2013-05-18 16:12:00,65.0,55.0,-100.00,SE,129,4.0,10.0,69,0.00,,,0.11,363.000000,,2013-05-18 16:12:00,
2013-05-18 16:33:00,65.0,55.0,-100.00,SE,129,4.0,10.0,69,0.00,,,0.11,363.000000,,2013-05-18 16:33:00,
2013-05-18 16:42:00,65.0,55.0,-100.00,SE,129,4.0,10.0,69,0.00,,,0.11,363.000000,,2013-05-18 16:42:00,
2013-05-18 16:52:00,65.0,55.0,-100.00,SE,129,4.0,10.0,69,0.00,,,0.11,363.000000,,2013-05-18 16:52:00,
2013-05-18 17:02:00,65.0,55.0,-100.00,SE,129,4.0,10.0,69,0.00,,,0.11,363.000000,,2013-05-18 17:02:00,
2013-05-18 17:12:00,71.0,58.0,-100.00,ESE,108,3.0,11.0,64,0.00,,,0.06,664.000000,,2013-05-18 17:12:00,
2013-05-18 17:33:00,71.0,58.0,-100.00,ESE,108,3.0,11.0,64,0.00,,,0.06,664.000000,,2013-05-18 17:33:00,
2013-05-18 17:42:00,71.0,58.0,-100.00,ESE,108,3.0,11.0,64,0.00,,,0.06,664.000000,,2013-05-18 17:42:00,
2013-05-18 17:52:00,71.0,58.0,-100.00,ESE,108,3.0,11.0,64,0.00,,,0.06,664.000000,,2013-05-18 17:52:00,
2013-05-18 18:01:00,71.0,58.0,-100.00,ESE,108,3.0,11.0,64,0.00,,,0.06,664.000000,,2013-05-18 18:01:00,
2013-05-18 18:12:00,74.0,61.0,-100.00,SSE,164,5.0,11.0,64,0.00,,,0.03,844.000000,,2013-05-18 18:12:00,
2013-05-18 18:42:00,74.0,61.0,-100.00,SSE,164,5.0,11.0,64,0.00,,,0.03,844.000000,,2013-05-18 18:42:00,
2013-05-18 18:52:00,74.0,61.0,-100.00,SSE,164,5.0,11.0,64,0.00,,,0.03,844.000000,,2013-05-18 18:52:00,
2013-05-18 19:02:00,74.0,61.0,-100.00,SSE,164,5.0,11.0,64,0.00,,,0.03,844.000000,,2013-05-18 19:02:00,
2013-05-18 19:32:00,75.0,61.0,-100.00,SSE,161,3.0,10.0,62,0.00,,,0.01,735.000000,,2013-05-18 19:32:00,
2013-05-18 19:42:00,75.0,61.0,-100.00,SSE,161,3.0,10.0,62,0.00,,,0.01,735.000000,,2013-05-18 19:42:00,
2013-05-18 19:52:00,75.0,61.0,-100.00,SSE,161,3.0,10.0,62,0.00,,,0.01,735.000000,,2013-05-18 19:52:00,
2013-05-18 20:02:00,75.0,61.0,-100.00,SSE,161,3.0,10.0,62,0.00,,,0.01,735.000000,,2013-05-18 20:02:00,
2013-05-18 20:11:00,75.0,61.0,-100.00,SSE,161,3.0,10.0,62,0.00,,,0.01,735.000000,,2013-05-18 20:11:00,
2013-05-18 20:12:00,76.0,62.0,-100.00,SSE,158,6.0,11.0,62,0.00,,,0.00,552.000000,,2013-05-18 20:12:00,
2013-05-18 20:42:00,76.0,62.0,-100.00,SSE,158,6.0,11.0,62,0.00,,,0.00,552.000000,,2013-05-18 20:42:00,
2013-05-18 20:52:00,76.0,62.0,-100.00,SSE,158,6.0,11.0,62,0.00,,,0.00,552.000000,,2013-05-18 20:52:00,
2013-05-18 21:01:00,76.0,62.0,-100.00,SSE,158,6.0,11.0,62,0.00,,,0.00,552.000000,,2013-05-18 21:01:00,
2013-05-18 21:12:00,77.0,63.0,-100.00,SSE,151,5.0,10.0,61,0.00,,,0.00,327.000000,,2013-05-18 21:12:00,
2013-05-18 21:33:00,77.0,63.0,-100.00,SSE,151,5.0,10.0,61,0.00,,,0.00,327.000000,,2013-05-18 21:33:00,
2013-05-18 21:44:00,77.0,63.0,-100.00,SSE,151,5.0,10.0,61,0.00,,,0.00,327.000000,,2013-05-18 21:44:00,
2013-05-18 21:53:00,77.0,63.0,-100.00,SSE,151,5.0,10.0,61,0.00,,,0.00,327.000000,,2013-05-18 21:53:00,
2013-05-18 22:03:00,77.0,63.0,-100.00,SSE,151,5.0,10.0,61,0.00,,,0.00,327.000000,,2013-05-18 22:03:00,
2013-05-18 22:12:00,77.0,60.0,-100.00,SE,145,5.0,11.0,56,0.00,,,0.00,328.000000,,2013-05-18 22:12:00,
2013-05-18 22:33:00,77.0,60.0,-100.00,SE,145,5.0,11.0,56,0.00,,,0.00,328.000000,,2013-05-18 22:33:00,
2013-05-18 22:42:00,77.0,60.0,-100.00,SE,145,5.0,11.0,56,0.00,,,0.00,328.000000,,2013-05-18 22:42:00,
2013-05-18 22:53:00,77.0,60.0,-100.00,SE,145,5.0,11.0,56,0.00,,,0.00,328.000000,,2013-05-18 22:53:00,
2013-05-18 23:01:00,77.0,60.0,-100.00,SE,145,5.0,11.0,56,0.00,,,0.00,328.000000,,2013-05-18 23:01:00,
2013-05-18 23:32:00,77.0,62.0,-100.00,SE,131,5.0,12.0,59,0.00,,,-99.99,197.000000,,2013-05-18 23:32:00,
2013-05-18 23:42:00,77.0,62.0,-100.00,SE,131,5.0,12.0,59,0.00,,,-99.99,197.000000,,2013-05-18 23:42:00,
2013-05-18 23:53:00,77.0,62.0,-100.00,SE,131,5.0,12.0,59,0.00,,,-99.99,197.000000,,2013-05-18 23:53:00,